Home > Weather > Milwaukee > Past weeks

Flag for USA Past Weather in Milwaukee, Wisconsin, USA — Yesterday and Last 2 Weeks

Now
82 °F

Passing clouds.


Feels Like: 82 °F
Forecast: 71 / 83 °F
Wind: 10 mph from West

Location: Milwaukee / Timmerman

Current Time: Jul 25, 2016 at 1:02:21 PM

Latest Report: Jul 25, 2016 at 11:45 AM


Visibility: 10 mi

Pressure: 30.01 "Hg

Humidity: 42%

Dew Point: 57 °F

Location of MilwaukeeLocation

Past Weather in Milwaukee — Graph

°F

Milwaukee Temperature Yesterday

Maximum temperature yesterday: 91 °F (at 2:45 PM)
Minimum temperature yesterday: 70 °F (at 12:15 AM)
Average temperature yesterday: 77 °F

High & Low Weather Summary for the Past Weeks

 TemperatureHumidityPressure
High91 °F (Jul 21, 4:45 PM)94% (Jul 16, 6:15 AM)30.28 "Hg (Jul 16, 6:15 AM)
Low54 °F (Jul 16, 5:15 AM)28% (Jul 14, 3:45 PM)29.73 "Hg (Jul 13, 5:45 PM)
Average73 °F67%29.99 "Hg
* Reported Jul 10 11:45 AM — Jul 25 11:45 AM, Milwaukee, Weather by CustomWeather, © 2016

Note: Actual official high and low records may vary slightly from our data, if they occured in-between our weather recording intervals... More about our weather records

Advertising

Milwaukee Weather History for the Previous 24 Hours

Scroll right to see more
 ConditionsComfort  
Time TempWeatherWind HumidityBarometerVisibility
11:45 AM
Mon, Jul 25
82 °FPassing clouds.10 mph42%30.01 "Hg10 mi
10:45 AM81 °FSunny.14 mph45%30.01 "Hg10 mi
9:45 AM79 °FSunny.10 mph54%30.00 "Hg10 mi
8:45 AM77 °FSunny.7 mph57%29.99 "Hg10 mi
7:45 AM73 °FSunny.8 mph65%29.99 "Hg10 mi
6:35 AM70 °FClear.9 mph73%29.98 "Hg10 mi
6:15 AM70 °FClear.6 mph73%29.99 "Hg10 mi
5:55 AM68 °FClear.6 mph78%29.98 "Hg10 mi
5:35 AM70 °FClear.5 mph73%29.98 "Hg10 mi
5:15 AM70 °FClear.6 mph73%29.97 "Hg10 mi
4:55 AM70 °FClear.5 mph73%29.96 "Hg10 mi
4:35 AM70 °FClear.5 mph73%29.96 "Hg10 mi
4:15 AM72 °FClear.5 mph69%29.96 "Hg10 mi
3:55 AM72 °FClear.6 mph73%29.96 "Hg10 mi
3:35 AM72 °FClear.7 mph73%29.96 "Hg10 mi
3:15 AM73 °FClear.6 mph69%29.96 "Hg10 mi
2:55 AM73 °FClear.5 mph69%29.96 "Hg10 mi
2:35 AM73 °FClear.5 mph69%29.96 "Hg10 mi
2:15 AM73 °FClear.5 mph69%29.96 "Hg10 mi
1:55 AM73 °FClear.7 mph69%29.95 "Hg10 mi
1:15 AM75 °FClear.7 mph65%29.94 "Hg10 mi
12:55 AM77 °FClear.8 mph61%29.94 "Hg10 mi
12:15 AM77 °FClear.6 mph61%29.91 "Hg10 mi
11:55 PM
Sun, Jul 24
77 °FClear.6 mph61%29.91 "Hg10 mi
11:15 PM79 °FClear.7 mph61%29.89 "Hg10 mi
10:55 PM79 °FClear.8 mph61%29.88 "Hg10 mi
10:15 PM79 °FClear.6 mph61%29.86 "Hg10 mi
9:55 PM81 °FClear.6 mph58%29.87 "Hg10 mi
9:15 PM82 °FSunny.10 mph58%29.87 "Hg10 mi
8:45 PM84 °FScattered clouds.12 mph62%29.86 "Hg10 mi
7:45 PM88 °FSunny.13 mph55%29.85 "Hg10 mi
5:55 PM90 °FScattered clouds.12 mph59%29.82 "Hg10 mi
4:45 PM91 °FScattered clouds.14 mph56%29.82 "Hg10 mi
2:45 PM91 °FBroken clouds.12 mph52%29.82 "Hg10 mi
1:45 PM90 °FBroken clouds.12 mph59%29.83 "Hg10 mi
Weather by CustomWeather, © 2016

See weather overviewHow to use our weather pages